Regional Weather Roundup
Issued by NWS

Home | Current Version | Previous Version | Text Only | Print | Product List | Glossary Off
Versions: 1 2 3 4 5 6 7 8 9 10 11 12 13 14 15 16 17 18 19 20 21 22 23 24 25 26 27 28 29 30 31 32 33 34 35 36 37 38 39 40 41 42 43 44 45 46 47 48 49 50

386
ASUS43 KIND 241059
RWRIN

WEATHER ROUNDUP FOR INDIANA
NATIONAL WEATHER SERVICE INDIANAPOLIS IN
600 AM EST FRI NOV 24 2017

NOTE: "FAIR" INDICATES FEW OR NO CLOUDS BELOW 12,000 FEET WITH NO
SIGNIFICANT WEATHER AND/OR OBSTRUCTIONS TO VISIBILITY.

* - STATION DOES NOT REPORT WEATHER SUCH AS PRECIPITATION OR FOG.

+ - STATION NOT QUALITY CONTROLLED BY THE NATIONAL WEATHER SERVICE.
    USE DATA WITH CAUTION...ESPECIALLY DEWPOINT AND RELATIVE
    HUMIDITY OBSERVATIONS.

INZ001>003-010>013-019-020-241200-
NORTHWEST INDIANA

CITY           SKY/WX    TMP DP  RH WIND       PRES   REMARKS
GARY /AIRPORT/ CLEAR     36  27  69 SW6       29.84F WCI  31
MICHIGAN CITY+ PTCLDY    34  27  75 SW7       29.84S WCI  28
MONTICELLO +   CLEAR     32  24  71 S8        29.88S WCI  25
RENSSELAER +   CLEAR     32  25  74 S6        29.87S WCI  26

$$

LMZ046-743>745-241200-
SOUTHERN LAKE MICHIGAN

STATION/POSITION TIME  TEMP    WIND        PRES    WAVE
                       AIR SEA DIR/SP/G            HT
                 (UTC) (F)     (DEG/KT/KT) (MB)    (FT)
BURNS HARBOR     1040   36     190/ 11/ 14 1010.8S
MICHIGAN CITY    1030   35     170/ 11/ 14   N/A

$$

INZ004-005-014>016-021>024-241200-
NORTH CENTRAL INDIANA

CITY           SKY/WX    TMP DP  RH WIND       PRES   REMARKS
GOSHEN         CLEAR     33  23  66 S7        29.86F WCI  27
PERU/GRISSOM   CLEAR     31  25  79 S8        29.88S WCI  24
SOUTH BEND     CLEAR     31  25  78 S9        29.85F WCI  23

$$

INZ006>009-017-018-025>027-241200-
NORTHEAST INDIANA

CITY           SKY/WX    TMP DP  RH WIND       PRES   REMARKS
FORT WAYNE     CLEAR     31  25  78 SW7       29.90S WCI  24
KENDALLVILLE + CLEAR     32  24  72 SW7       29.87S WCI  25

$$

INZ028-029-035-036-043>045-051>053-241200-
WEST CENTRAL INDIANA

CITY           SKY/WX    TMP DP  RH WIND       PRES   REMARKS
CRAWFORDSVL +  CLEAR     30  24  79 MISG      29.89
GREENCASTLE +  CLOUDY    32  23  69 CALM      29.92S
LAFAYETTE      CLEAR     32  25  75 CALM      29.89F
TERRE HAUTE    CLEAR     28  22  78 CALM      29.93R

$$

INZ030>032-037>040-046>048-054>057-064-065-241200-
CENTRAL INDIANA

CITY           SKY/WX    TMP DP  RH WIND       PRES   REMARKS
INDIANAPOLIS   CLOUDY    31  24  75 S6        29.93S WCI  25
-EAGLE CREEK   CLOUDY    30  22  72 CALM      29.92R
KOKOMO +       CLEAR     31  25  78 S8        29.90S WCI  23
MT COMFORT *+  CLEAR     30  27  86 S6        29.93R WCI  24
SHELBYVILLE    CLOUDY    34  23  64 S7        29.93S WCI  28

$$

INZ033-034-041-042-049-050-058-059-241200-
EAST CENTRAL INDIANA

CITY           SKY/WX    TMP DP  RH WIND       PRES   REMARKS
MUNCIE         CLEAR     35  23  61 S7        29.91F WCI  29
RICHMOND +     CLOUDY    28  27  93 S8        29.94F WCI  20

$$

INZ060-061-067>069-081>083-085>088-241200-
SOUTHWEST INDIANA

CITY           SKY/WX    TMP DP  RH WIND       PRES   REMARKS
EVANSVILLE     CLEAR     32  26  78 CALM      29.96F
HUNTINGBURG +  CLOUDY    35  24  64 S6        29.96F WCI  30

$$

INZ062-063-066-070>080-084-089>092-241200-
SOUTH CENTRAL AND SOUTHEAST INDIANA

CITY           SKY/WX    TMP DP  RH WIND       PRES   REMARKS
BLOOMINGTON    CLOUDY    28  21  75 SE5       29.93S WCI  23
MADISON *+     CLOUDY    32  27  80 CALM      29.98F
SEYMOUR +      CLOUDY    30  23  74 CALM      29.97S

$$





USA.gov is the U.S. government's official web portal to all federal, state and local government web resources and services.